IT9KWW-13 Weather Reports


time (UTC)temp
C
wind
direction
speed
KPH
gust
KPH
rain 1hr
cm
rain 24hr
cm
rain mn
cm
humidity
%
barometer
mb
20260508015200 16 315 3.2 3.2 0.00 0.00 0.00 91 1006.8
20260508014959 16 292 3.2 3.2 0.00 0.00 0.00 91 1006.8
20260508014759 16 270 3.2 3.2 0.00 0.00 0.00 91 1006.8
20260508014600 16 292 4.8 4.8 0.00 0.00 0.00 91 1006.8
20260508014359 16 292 4.8 4.8 0.00 0.00 0.00 91 1006.1
20260508014159 16 292 3.2 3.2 0.00 0.00 0.00 91 1006.1
20260508014000 16 292 4.8 4.8 0.00 0.00 0.00 91 1006.1
20260508013759 16 292 4.8 4.8 0.00 0.00 0.00 91 1006.1
20260508013559 16 292 0.0 0.0 0.00 0.00 0.00 91 1006.1
20260508013400 16 292 3.2 3.2 0.00 0.00 0.00 91 1006.1
20260508013159 16 292 3.2 3.2 0.00 0.00 0.00 91 1006.1
20260508012959 16 292 3.2 3.2 0.00 0.00 0.00 91 1006.1
20260508012800 16 292 3.2 3.2 0.00 0.00 0.00 91 1006.1
20260508012559 16 292 3.2 3.2 0.00 0.00 0.00 91 1006.1
20260508012359 16 292 4.8 4.8 0.00 0.00 0.00 91 1006.1
20260508012200 16 292 3.2 3.2 0.00 0.00 0.00 91 1006.1
20260508011959 16 292 3.2 3.2 0.00 0.00 0.00 91 1006.1
20260508011759 16 292 6.4 8.0 0.00 0.00 0.00 90 1006.1
20260508011600 16 315 1.6 1.6 0.00 0.00 0.00 90 1006.1
20260508011359 16 315 0.0 0.0 0.00 0.00 0.00 90 1006.1
20260508011159 17 315 3.2 3.2 0.00 0.00 0.00 90 1006.1
20260508011000 17 315 3.2 3.2 0.00 0.00 0.00 90 1006.1
20260508010759 17 315 3.2 3.2 0.00 0.00 0.00 90 1006.1
20260508010559 17 315 4.8 4.8 0.00 0.00 0.00 91 1006.1
20260508010400 17 338 3.2 3.2 0.00 0.00 0.00 91 1006.1
20260508010159 17 315 1.6 1.6 0.00 0.00 0.00 91 1006.1
20260508005959 17 315 3.2 3.2 0.00 0.00 0.00 91 1006.1
20260508005800 17 292 3.2 3.2 0.00 0.00 0.00 91 1006.1
20260508005559 17 292 3.2 3.2 0.00 0.00 0.00 91 1006.1
20260508005359 17 292 3.2 3.2 0.00 0.00 0.00 91 1006.1
20260508005200 16 292 3.2 3.2 0.00 0.00 0.00 91 1006.1
20260508004959 16 292 3.2 3.2 0.00 0.00 0.00 92 1006.1
20260508004759 16 292 1.6 1.6 0.00 0.00 0.00 92 1006.1
20260508004600 16 338 0.0 0.0 0.00 0.00 0.00 92 1006.1
20260508004359 16 338 3.2 3.2 0.00 0.00 0.00 92 1006.1
20260508004159 16 338 0.0 0.0 0.00 0.00 0.00 92 1006.1
20260508004000 16 338 0.0 0.0 0.00 0.00 0.00 92 1006.1
20260508003759 16 338 0.0 0.0 0.00 0.00 0.00 92 1006.1
20260508003559 16 338 0.0 0.0 0.00 0.00 0.00 92 1006.1
20260508003349 16 338 0.0 0.0 0.00 0.00 0.00 92 1006.1
20260508003147 16 338 1.6 1.6 0.00 0.00 0.00 92 1006.8
20260508002947 16 338 0.0 0.0 0.00 0.00 0.00 92 1006.8
20260508002736 16 338 0.0 0.0 0.00 0.00 0.00 92 1006.8
20260508002535 16 338 0.0 0.0 0.00 0.00 0.00 92 1006.8
20260508002335 16 338 0.0 0.0 0.00 0.00 0.00 92 1006.8
20260508002136 16 338 3.2 3.2 0.00 0.00 0.00 92 1006.8
20260508001935 16 338 1.6 1.6 0.00 0.00 0.00 92 1006.8
20260508001735 16 338 0.0 0.0 0.00 0.00 0.00 92 1006.8
20260508001536 16 338 1.6 1.6 0.00 0.00 0.00 92 1006.8
20260508001335 16 338 0.0 0.0 0.00 0.00 0.00 92 1006.8
20260508001135 16 338 0.0 0.0 0.00 0.00 0.00 91 1006.8
20260508000925 17 338 0.0 0.0 0.00 0.00 0.00 92 1006.8
20260508000723 17 338 0.0 0.0 0.00 0.00 0.00 92 1006.8
20260508000523 17 338 0.0 0.0 0.00 0.00 0.00 92 1006.8
20260508000324 17 338 3.2 3.2 0.00 0.00 0.00 92 1006.8
20260508000123 17 338 1.6 1.6 0.00 0.00 0.00 92 1006.8
20260507235923 17 338 0.0 0.0 0.00 0.00 0.00 92 1006.8
20260507235713 17 338 6.4 8.0 0.00 0.00 0.00 92 1006.8
20260507235511 17 292 3.2 3.2 0.00 0.00 0.00 92 1006.8
20260507235311 17 292 3.2 3.2 0.00 0.00 0.00 92 1006.8
20260507235112 17 292 4.8 4.8 0.00 0.00 0.00 92 1006.8
20260507234911 17 292 3.2 3.2 0.00 0.00 0.00 92 1006.8
20260507234711 17 338 3.2 3.2 0.00 0.00 0.00 92 1006.8
20260507234502 17 338 0.0 0.0 0.00 0.00 0.00 92 1006.8
20260507234259 17 292 0.0 0.0 0.00 0.00 0.00 91 1006.8
20260507234059 17 292 1.6 1.6 0.00 0.00 0.00 91 1006.8
20260507233900 17 292 3.2 3.2 0.00 0.00 0.00 91 1006.8
20260507233659 17 292 3.2 3.2 0.00 0.00 0.00 91 1006.8
20260507233459 17 292 4.8 4.8 0.00 0.00 0.00 91 1006.8
20260507233300 17 292 3.2 3.2 0.00 0.00 0.00 91 1006.8
20260507233059 17 315 3.2 3.2 0.00 0.00 0.00 91 1007.8
20260507232859 17 338 4.8 4.8 0.00 0.00 0.00 91 1007.8
20260507232700 17 68 0.0 0.0 0.00 0.00 0.00 91 1007.8
20260507232459 17 68 1.6 1.6 0.00 0.00 0.00 91 1007.8
20260507232259 17 68 1.6 1.6 0.00 0.00 0.00 91 1007.8
20260507232100 17 68 0.0 0.0 0.00 0.00 0.00 91 1007.8
20260507231859 17 68 0.0 0.0 0.00 0.00 0.00 91 1007.8
20260507231659 17 68 0.0 0.0 0.00 0.00 0.00 91 1007.8
20260507231500 17 68 0.0 0.0 0.00 0.00 0.00 91 1007.8
20260507231259 17 68 0.0 0.0 0.00 0.00 0.00 91 1007.8
20260507231059 17 68 0.0 0.0 0.00 0.00 0.00 91 1007.8
20260507230900 17 68 0.0 0.0 0.00 0.00 0.00 91 1007.8
20260507230659 17 68 3.2 3.2 0.00 0.00 0.00 91 1007.8
20260507230459 17 292 0.0 0.0 0.00 0.00 0.00 91 1007.8
20260507230248 17 292 4.8 4.8 0.00 0.00 0.00 91 1007.8
20260507230047 17 292 1.6 1.6 0.00 0.00 0.00 91 1007.8
20260507225847 17 292 3.2 3.2 0.00 0.00 0.00 91 1007.8
20260507225648 17 292 3.2 3.2 0.00 0.00 0.00 91 1007.8
20260507225447 17 292 4.8 4.8 0.00 0.00 0.00 91 1007.8
20260507225247 17 315 4.8 4.8 0.00 0.00 0.00 91 1007.8
20260507225037 17 315 4.8 4.8 0.00 0.00 0.00 91 1007.8
20260507224835 17 315 3.2 3.2 0.00 0.00 0.00 91 1007.8
20260507224635 17 315 3.2 3.2 0.00 0.00 0.00 90 1007.8
20260507224436 17 315 0.0 0.0 0.00 0.00 0.00 90 1007.8
20260507224235 17 315 0.0 0.0 0.00 0.00 0.00 90 1007.8
20260507224035 17 315 0.0 0.0 0.00 0.00 0.00 90 1007.8
20260507223836 17 315 0.0 0.0 0.00 0.00 0.00 90 1007.8
20260507223635 17 315 0.0 0.0 0.00 0.00 0.00 90 1007.8
20260507223435 17 315 0.0 0.0 0.00 0.00 0.00 90 1007.8
20260507223236 17 315 3.2 3.2 0.00 0.00 0.00 90 1007.8
20260507223035 17 315 0.0 0.0 0.00 0.00 0.00 90 1007.8
20260507222835 17 315 0.0 0.0 0.00 0.00 0.00 90 1007.8
20260507222636 17 315 3.2 3.2 0.00 0.00 0.00 90 1007.8
20260507222435 17 315 0.0 0.0 0.00 0.00 0.00 90 1007.8
20260507222235 18 315 0.0 0.0 0.00 0.00 0.00 90 1007.8
20260507222036 18 315 1.6 1.6 0.00 0.00 0.00 90 1007.8
20260507221835 18 315 3.2 3.2 0.00 0.00 0.00 90 1007.8
20260507221635 18 315 3.2 3.2 0.00 0.00 0.00 90 1007.8
20260507221436 18 315 4.8 6.4 0.00 0.00 0.00 90 1007.8
20260507221235 18 315 0.0 0.0 0.00 0.00 0.00 90 1007.8
20260507221035 18 315 1.6 1.6 0.00 0.00 0.00 90 1007.8
20260507220836 18 315 3.2 3.2 0.00 0.00 0.00 90 1007.8
20260507220635 18 315 8.0 9.7 0.00 0.00 0.00 90 1007.8
20260507220435 18 338 1.6 1.6 0.00 0.00 0.00 90 1007.8
20260507220224 18 338 8.0 8.0 0.00 0.00 0.00 90 1007.8
20260507220023 18 292 3.2 3.2 0.00 0.00 0.00 90 1006.8
20260507215823 18 292 0.0 0.0 0.00 0.00 0.00 90 1006.8
20260507215624 18 292 4.8 4.8 0.00 0.00 0.00 90 1006.8
20260507215423 18 292 3.2 3.2 0.00 0.00 0.00 90 1006.8
20260507215223 18 292 4.8 4.8 0.00 0.00 0.00 90 1006.8
20260507215024 18 292 9.7 9.7 0.00 0.00 0.00 90 1006.8
20260507214823 18 315 3.2 3.2 0.00 0.00 0.00 90 1006.8
20260507214623 18 315 3.2 3.2 0.00 0.00 0.00 90 1006.8
20260507214412 18 338 4.8 4.8 0.00 0.00 0.00 90 1006.8
20260507214211 18 292 3.2 3.2 0.00 0.00 0.00 90 1006.8
20260507214011 18 270 3.2 3.2 0.00 0.00 0.00 90 1006.8
20260507213812 18 270 4.8 4.8 0.00 0.00 0.00 90 1006.8
20260507213611 18 315 0.0 0.0 0.00 0.00 0.00 90 1006.8
20260507213411 18 315 3.2 3.2 0.00 0.00 0.00 90 1006.8
20260507213212 18 315 0.0 0.0 0.00 0.00 0.00 90 1006.8
20260507213011 18 338 3.2 3.2 0.00 0.00 0.00 90 1006.8
20260507212811 18 338 3.2 3.2 0.00 0.00 0.00 90 1006.8
20260507212612 18 338 8.0 8.0 0.00 0.00 0.00 90 1006.8
20260507212411 18 315 3.2 3.2 0.00 0.00 0.00 90 1006.8
20260507212211 18 315 0.0 0.0 0.00 0.00 0.00 90 1006.8
20260507212000 18 315 6.4 8.0 0.00 0.00 0.00 90 1006.8
20260507211759 18 315 8.0 8.0 0.00 0.00 0.00 90 1006.8
20260507211559 18 338 4.8 4.8 0.00 0.00 0.00 90 1006.8
20260507211400 18 338 4.8 6.4 0.00 0.00 0.00 90 1006.8
20260507211159 18 315 0.0 0.0 0.00 0.00 0.00 90 1006.8
20260507210959 18 338 3.2 3.2 0.00 0.00 0.00 90 1006.8
20260507210800 18 315 9.7 9.7 0.00 0.00 0.00 90 1006.8
20260507210559 18 292 8.0 8.0 0.00 0.00 0.00 90 1006.8
20260507210359 18 22 11.3 11.3 0.00 0.00 0.00 90 1006.8
20260507210200 18 338 3.2 3.2 0.00 0.00 0.00 91 1006.8
20260507205959 18 292 9.7 9.7 0.00 0.00 0.00 91 1006.8
20260507205759 18 338 3.2 3.2 0.00 0.00 0.00 91 1006.8
20260507205600 18 45 6.4 8.0 0.00 0.00 0.00 91 1006.8
20260507205359 18 22 3.2 3.2 0.00 0.00 0.00 91 1006.8
20260507205159 18 338 6.4 8.0 0.00 0.00 0.00 91 1006.8
20260507205000 18 338 4.8 4.8 0.00 0.00 0.00 91 1006.8
20260507204759 18 338 3.2 3.2 0.00 0.00 0.00 91 1006.8
20260507204559 18 45 0.0 0.0 0.00 0.00 0.00 92 1006.8
20260507204400 18 45 3.2 3.2 0.00 0.00 0.00 92 1006.8
20260507204159 18 45 4.8 4.8 0.00 0.00 0.00 92 1006.8
20260507203959 18 338 9.7 9.7 0.00 0.00 0.00 92 1006.8
20260507203800 18 338 1.6 1.6 0.00 0.00 0.00 92 1006.8
20260507203559 18 315 3.2 3.2 0.00 0.00 0.00 92 1006.8
20260507203359 18 315 0.0 0.0 0.00 0.00 0.00 92 1006.8
20260507203148 18 315 4.8 4.8 0.00 0.00 0.00 92 1006.8
20260507202947 18 0 3.2 3.2 0.00 0.00 0.00 92 1006.8
20260507202747 18 315 6.4 6.4 0.00 0.00 0.00 92 1006.8
20260507202548 18 22 0.0 0.0 0.00 0.00 0.00 92 1006.8
20260507202347 18 338 3.2 3.2 0.00 0.00 0.00 92 1006.8
20260507202147 18 338 3.2 3.2 0.00 0.00 0.00 92 1006.8
20260507201948 18 338 4.8 4.8 0.00 0.00 0.00 92 1006.8
20260507201747 18 338 3.2 3.2 0.00 0.00 0.00 92 1006.8
20260507201547 18 338 1.6 1.6 0.00 0.00 0.00 92 1006.8
20260507201348 18 338 3.2 3.2 0.00 0.00 0.00 92 1006.8
20260507201147 18 338 3.2 3.2 0.00 0.00 0.00 92 1006.8
20260507200947 18 338 1.6 1.6 0.00 0.00 0.00 92 1006.8
20260507200748 18 338 1.6 1.6 0.00 0.00 0.00 92 1006.8
20260507200547 18 315 3.2 3.2 0.00 0.00 0.00 92 1006.8
20260507200347 18 22 0.0 0.0 0.00 0.00 0.00 92 1006.8
20260507200148 18 338 3.2 3.2 0.00 0.00 0.00 92 1006.8
20260507195947 18 338 4.8 6.4 0.00 0.00 0.00 92 1006.8
20260507195735 18 338 3.2 3.2 0.00 0.00 0.00 92 1006.8
20260507195536 18 338 4.8 4.8 0.00 0.00 0.00 92 1006.8
20260507195335 18 315 3.2 3.2 0.00 0.00 0.00 92 1006.8
20260507195135 18 315 3.2 3.2 0.00 0.00 0.00 92 1006.8
20260507194936 18 338 3.2 3.2 0.00 0.00 0.00 92 1006.8
20260507194735 18 22 0.0 0.0 0.00 0.00 0.00 92 1006.8
20260507194535 18 0 3.2 3.2 0.00 0.00 0.00 92 1006.8
20260507194324 18 338 8.0 8.0 0.00 0.00 0.00 92 1006.8
20260507194123 18 22 1.6 1.6 0.00 0.00 0.00 92 1006.8
20260507193911 18 0 0.0 0.0 0.00 0.00 0.00 92 1006.8
20260507193700 18 338 3.2 3.2 0.00 0.00 0.00 92 1006.8
20260507193447 18 338 0.0 0.0 0.00 0.00 0.00 92 1006.8
20260507193247 18 338 1.6 1.6 0.00 0.00 0.00 92 1006.8
20260507193048 18 338 0.0 0.0 0.00 0.00 0.00 92 1006.8
20260507192847 18 338 0.0 0.0 0.00 0.00 0.00 92 1006.1
20260507192647 18 338 3.2 3.2 0.00 0.00 0.00 92 1006.1
20260507192448 18 22 3.2 3.2 0.00 0.00 0.00 92 1006.1
20260507192235 18 338 0.0 0.0 0.00 0.00 0.00 92 1006.1
20260507192023 18 22 8.0 8.0 0.00 0.00 0.00 92 1006.1
20260507191814 18 338 8.0 8.0 0.00 0.00 0.00 92 1006.1
20260507191559 18 22 1.6 1.6 0.00 0.00 0.00 92 1006.1
20260507191359 18 0 6.4 8.0 0.00 0.00 0.00 92 1006.1
20260507191200 18 0 8.0 8.0 0.00 0.00 0.00 91 1006.1
20260507190959 18 338 8.0 8.0 0.00 0.00 0.00 91 1006.1
20260507190759 18 45 3.2 3.2 0.00 0.00 0.00 91 1006.1
20260507190600 18 0 11.3 11.3 0.00 0.00 0.00 91 1006.1
20260507190347 18 0 1.6 1.6 0.00 0.00 0.00 91 1006.1
20260507190135 18 22 4.8 6.4 0.00 0.00 0.00 91 1006.1
20260507185924 18 338 9.7 11.3 0.00 0.00 0.00 91 1006.1
20260507185711 18 68 3.2 3.2 0.00 0.00 0.00 91 1006.1
20260507185459 18 22 6.4 6.4 0.00 0.00 0.00 91 1006.1
20260507185300 18 22 9.7 9.7 0.00 0.00 0.00 91 1006.1
20260507185047 18 22 4.8 4.8 0.00 0.00 0.00 91 1006.1
20260507184835 18 22 8.0 8.0 0.00 0.00 0.00 91 1006.1
20260507184624 18 22 3.2 3.2 0.00 0.00 0.00 91 1006.1
20260507184411 18 22 6.4 6.4 0.00 0.00 0.00 91 1006.1
20260507184159 18 22 6.4 8.0 0.00 0.00 0.00 91 1006.1
20260507184000 18 22 9.7 11.3 0.00 0.00 0.00 91 1006.1
20260507183747 18 338 4.8 4.8 0.00 0.00 0.00 90 1006.1
20260507183535 18 45 8.0 8.0 0.00 0.00 0.00 90 1006.1
20260507183324 18 338 8.0 8.0 0.00 0.00 0.00 90 1006.1
20260507183111 18 338 3.2 3.2 0.00 0.00 0.00 90 1006.1
20260507182859 18 315 3.2 3.2 0.00 0.00 0.00 90 1006.1
20260507182700 18 338 3.2 3.2 0.00 0.00 0.00 90 1006.1
20260507182459 18 315 4.8 6.4 0.00 0.00 0.00 90 1006.1
20260507182259 18 45 6.4 8.0 0.00 0.00 0.00 90 1006.1
20260507182048 18 45 6.4 6.4 0.00 0.00 0.00 90 1006.1
20260507181835 18 68 4.8 4.8 0.00 0.00 0.00 90 1006.1
20260507181623 18 22 9.7 9.7 0.00 0.00 0.00 90 1006.1
20260507181412 18 68 8.0 8.0 0.00 0.00 0.00 90 1006.1
20260507181211 18 338 8.0 8.0 0.00 0.00 0.00 90 1006.1
20260507181011 18 22 4.8 4.8 0.00 0.00 0.00 90 1006.1
20260507180800 18 22 3.2 3.2 0.00 0.00 0.00 90 1006.1
20260507180559 18 68 11.3 11.3 0.00 0.00 0.00 89 1006.1
20260507180347 18 22 6.4 8.0 0.00 0.00 0.00 89 1006.1
20260507180136 18 338 3.2 3.2 0.00 0.00 0.00 89 1006.1
20260507175923 18 22 3.2 3.2 0.00 0.00 0.00 89 1006.1
20260507175723 18 22 6.4 6.4 0.00 0.00 0.00 89 1006.1
20260507175512 18 45 9.7 9.7 0.00 0.00 0.00 89 1006.1
20260507175311 18 22 8.0 8.0 0.00 0.00 0.00 89 1006.1
20260507175111 18 45 6.4 8.0 0.00 0.00 0.00 89 1006.1
20260507174900 18 68 9.7 9.7 0.00 0.00 0.00 89 1006.1
20260507174647 18 45 9.7 11.3 0.00 0.00 0.00 89 1006.1
20260507174435 18 338 12.9 12.9 0.00 0.00 0.00 88 1006.1
20260507174223 18 68 9.7 9.7 0.00 0.00 0.00 88 1006.1
20260507174023 18 45 14.5 19.3 0.00 0.00 0.00 88 1006.1
20260507173823 18 68 9.7 9.7 0.00 0.00 0.00 88 1006.1
20260507173611 18 22 8.0 9.7 0.00 0.00 0.00 88 1006.1
20260507173411 18 22 11.3 11.3 0.00 0.00 0.00 88 1006.1
20260507173211 18 22 11.3 11.3 0.00 0.00 0.00 88 1006.1
20260507173000 18 68 11.3 11.3 0.00 0.00 0.00 88 1006.1
20260507172759 18 45 11.3 12.9 0.00 0.00 0.00 88 1006.1
20260507172559 19 22 12.9 12.9 0.00 0.00 0.00 88 1006.1
20260507172348 19 45 9.7 9.7 0.00 0.00 0.00 88 1006.1
20260507172147 19 45 11.3 11.3 0.00 0.00 0.00 87 1006.1
20260507171947 19 22 9.7 9.7 0.00 0.00 0.00 87 1006.1
20260507171736 19 22 4.8 6.4 0.00 0.00 0.00 87 1006.1
20260507171535 19 45 9.7 9.7 0.00 0.00 0.00 87 1005.1
20260507171335 19 22 9.7 9.7 0.00 0.00 0.00 87 1005.1
20260507171123 19 22 6.4 8.0 0.00 0.00 0.00 87 1005.1
20260507170923 19 22 11.3 11.3 0.00 0.00 0.00 87 1005.1
20260507170723 19 22 11.3 11.3 0.00 0.00 0.00 87 1005.1
20260507170511 19 22 11.3 11.3 0.00 0.00 0.00 87 1005.1
20260507170311 19 22 14.5 16.1 0.00 0.00 0.00 86 1006.1
20260507170111 19 90 9.7 11.3 0.00 0.00 0.00 86 1006.1
20260507165859 19 22 8.0 8.0 0.00 0.00 0.00 86 1006.1
20260507165659 20 45 11.3 12.9 0.00 0.00 0.00 86 1006.1
20260507165459 20 22 9.7 9.7 0.00 0.00 0.00 85 1006.1
20260507165247 20 22 11.3 11.3 0.00 0.00 0.00 85 1006.1
20260507165047 20 0 14.5 14.5 0.00 0.00 0.00 85 1006.1
20260507164847 20 45 9.7 9.7 0.00 0.00 0.00 84 1006.1
20260507164636 20 45 8.0 9.7 0.00 0.00 0.00 84 1006.1
20260507164435 20 68 12.9 12.9 0.00 0.00 0.00 84 1005.1
20260507164235 20 22 9.7 9.7 0.00 0.00 0.00 84 1005.1
20260507164024 20 45 8.0 8.0 0.00 0.00 0.00 84 1005.1
20260507163823 20 22 11.3 11.3 0.00 0.00 0.00 84 1005.1
20260507163623 20 68 9.7 9.7 0.00 0.00 0.00 83 1005.1
20260507163412 20 68 6.4 8.0 0.00 0.00 0.00 83 1005.1
20260507163211 20 22 9.7 9.7 0.00 0.00 0.00 83 1005.1
20260507163011 20 68 9.7 11.3 0.00 0.00 0.00 83 1005.1
20260507162759 20 22 11.3 11.3 0.00 0.00 0.00 83 1005.1
20260507162559 20 45 9.7 9.7 0.00 0.00 0.00 82 1005.1
20260507162359 20 68 6.4 6.4 0.00 0.00 0.00 83 1005.1
20260507162147 20 45 6.4 6.4 0.00 0.00 0.00 83 1005.1
20260507161947 20 68 12.9 14.5 0.00 0.00 0.00 82 1005.1
20260507161747 20 22 11.3 12.9 0.00 0.00 0.00 83 1005.1
20260507161535 20 68 8.0 8.0 0.00 0.00 0.00 83 1005.1
20260507161335 20 45 9.7 9.7 0.00 0.00 0.00 83 1006.1
20260507161135 20 68 14.5 14.5 0.00 0.00 0.00 83 1006.1
20260507160923 20 68 9.7 11.3 0.00 0.00 0.00 82 1006.1
20260507160723 20 68 11.3 11.3 0.00 0.00 0.00 82 1006.1
20260507160523 20 68 12.9 12.9 0.00 0.00 0.00 83 1006.1
20260507160311 20 68 14.5 14.5 0.00 0.00 0.00 82 1006.1
20260507160111 20 68 12.9 12.9 0.00 0.00 0.00 82 1006.1
20260507155911 20 45 8.0 8.0 0.00 0.00 0.00 83 1006.1
20260507155700 20 68 9.7 9.7 0.00 0.00 0.00 82 1006.1
20260507155459 20 68 11.3 12.9 0.00 0.00 0.00 82 1006.1
20260507155259 20 68 11.3 12.9 0.00 0.00 0.00 83 1006.1
20260507155047 20 68 14.5 14.5 0.00 0.00 0.00 81 1006.1
20260507154847 20 22 9.7 9.7 0.00 0.00 0.00 82 1006.1
20260507154647 20 68 8.0 8.0 0.00 0.00 0.00 82 1006.1
20260507154435 20 68 12.9 12.9 0.00 0.00 0.00 81 1006.1
20260507154235 20 68 14.5 16.1 0.00 0.00 0.00 82 1006.1
20260507154035 20 68 9.7 9.7 0.00 0.00 0.00 82 1006.1
20260507153823 20 68 12.9 14.5 0.00 0.00 0.00 82 1006.1
20260507153623 20 68 16.1 17.7 0.00 0.00 0.00 81 1006.1
20260507153423 20 68 14.5 16.1 0.00 0.00 0.00 82 1006.1
20260507153211 20 68 12.9 12.9 0.00 0.00 0.00 82 1006.1
20260507153011 20 68 14.5 16.1 0.00 0.00 0.00 82 1006.1
20260507152811 20 68 11.3 11.3 0.00 0.00 0.00 82 1006.1
20260507152559 20 68 11.3 11.3 0.00 0.00 0.00 82 1006.1
20260507152359 20 68 14.5 14.5 0.00 0.00 0.00 82 1006.1
20260507152159 20 68 8.0 8.0 0.00 0.00 0.00 81 1006.1
20260507151947 20 68 11.3 11.3 0.00 0.00 0.00 82 1006.1
20260507151747 20 90 16.1 17.7 0.00 0.00 0.00 81 1006.1
20260507151547 20 68 12.9 12.9 0.00 0.00 0.00 81 1006.1
20260507151335 20 90 16.1 17.7 0.00 0.00 0.00 81 1006.1
20260507151135 20 45 12.9 12.9 0.00 0.00 0.00 81 1006.1
20260507150935 20 68 14.5 14.5 0.00 0.00 0.00 81 1006.1
20260507150723 20 68 12.9 14.5 0.00 0.00 0.00 81 1006.1
20260507150523 20 90 14.5 16.1 0.00 0.00 0.00 81 1006.1
20260507150323 20 90 14.5 17.7 0.00 0.00 0.00 81 1006.1
20260507150111 20 22 12.9 14.5 0.00 0.00 0.00 81 1006.1
20260507145911 20 68 12.9 14.5 0.00 0.00 0.00 82 1006.1
20260507145711 20 45 14.5 17.7 0.00 0.00 0.00 81 1006.1
20260507145459 20 90 14.5 16.1 0.00 0.00 0.00 81 1006.1
20260507145259 20 68 16.1 16.1 0.00 0.00 0.00 81 1006.1
20260507145059 20 68 14.5 16.1 0.00 0.00 0.00 81 1006.1
20260507144847 20 68 16.1 17.7 0.00 0.00 0.00 81 1006.1
20260507144647 20 68 14.5 19.3 0.00 0.00 0.00 80 1006.1
20260507144447 20 90 12.9 14.5 0.00 0.00 0.00 80 1006.1
20260507144236 20 90 12.9 14.5 0.00 0.00 0.00 79 1006.1
20260507144035 20 112 12.9 14.5 0.00 0.00 0.00 79 1006.1
20260507143835 20 112 11.3 11.3 0.00 0.00 0.00 80 1006.1
20260507143623 20 68 12.9 14.5 0.00 0.00 0.00 79 1006.1
20260507143423 20 90 12.9 12.9 0.00 0.00 0.00 80 1006.1
20260507143223 20 90 14.5 16.1 0.00 0.00 0.00 79 1006.1
20260507143011 21 68 17.7 20.9 0.00 0.00 0.00 79 1006.1
20260507142811 21 68 16.1 19.3 0.00 0.00 0.00 79 1006.1
20260507142611 21 90 17.7 17.7 0.00 0.00 0.00 79 1006.1
20260507142359 21 45 12.9 12.9 0.00 0.00 0.00 79 1006.1
20260507142159 21 68 16.1 17.7 0.00 0.00 0.00 79 1006.1
20260507141959 21 68 16.1 17.7 0.00 0.00 0.00 79 1006.1
20260507141747 21 68 14.5 16.1 0.00 0.00 0.00 79 1006.1
20260507141547 21 68 14.5 14.5 0.00 0.00 0.00 78 1006.1
20260507141347 21 90 16.1 17.7 0.00 0.00 0.00 78 1006.1
20260507141135 21 90 14.5 16.1 0.00 0.00 0.00 78 1006.1
20260507140935 21 68 16.1 17.7 0.00 0.00 0.00 78 1006.1
20260507140735 21 22 16.1 17.7 0.00 0.00 0.00 78 1006.1
20260507140523 21 68 16.1 19.3 0.00 0.00 0.00 78 1006.1
20260507140323 21 68 12.9 12.9 0.00 0.00 0.00 78 1006.1
20260507140123 21 112 16.1 17.7 0.00 0.00 0.00 78 1006.1
20260507135911 21 90 17.7 19.3 0.00 0.00 0.00 77 1006.1
20260507135711 21 68 17.7 20.9 0.00 0.00 0.00 76 1006.1
20260507135511 21 68 12.9 16.1 0.00 0.00 0.00 77 1006.1
20260507135259 21 68 14.5 14.5 0.00 0.00 0.00 77 1006.1
20260507135059 21 68 14.5 16.1 0.00 0.00 0.00 78 1006.1
20260507134859 21 68 16.1 17.7 0.00 0.00 0.00 77 1006.1
20260507134647 21 68 12.9 14.5 0.00 0.00 0.00 77 1006.1
20260507134447 21 68 17.7 22.5 0.00 0.00 0.00 76 1006.1
20260507134247 21 90 17.7 20.9 0.00 0.00 0.00 77 1006.1
20260507134035 21 112 22.5 24.1 0.00 0.00 0.00 76 1006.1
20260507133835 21 90 14.5 16.1 0.00 0.00 0.00 77 1006.1
20260507133635 21 45 14.5 17.7 0.00 0.00 0.00 78 1006.1
20260507133423 21 68 22.5 25.7 0.00 0.00 0.00 79 1006.1
20260507133223 21 68 20.9 24.1 0.00 0.00 0.00 78 1006.8
20260507133023 21 68 25.7 27.4 0.00 0.00 0.00 78 1006.8
20260507132811 21 112 14.5 16.1 0.00 0.00 0.00 77 1006.8
20260507132611 21 68 22.5 24.1 0.00 0.00 0.00 77 1006.8
20260507132411 21 68 20.9 25.7 0.00 0.00 0.00 77 1006.8
20260507132159 21 68 14.5 17.7 0.00 0.00 0.00 79 1006.8
20260507131959 21 68 20.9 25.7 0.00 0.00 0.00 78 1006.8
20260507131759 21 90 20.9 24.1 0.00 0.00 0.00 79 1006.8
20260507131547 21 90 16.1 17.7 0.00 0.00 0.00 78 1006.8
20260507131347 21 68 25.7 29.0 0.00 0.00 0.00 77 1006.8
20260507131147 21 68 14.5 16.1 0.00 0.00 0.00 78 1006.8
20260507130935 21 45 12.9 14.5 0.00 0.00 0.00 78 1006.8
20260507130735 21 68 17.7 20.9 0.00 0.00 0.00 78 1006.8
20260507130535 21 90 20.9 25.7 0.00 0.00 0.00 77 1006.8
20260507130323 21 90 20.9 25.7 0.00 0.00 0.00 78 1006.8
20260507130123 21 68 12.9 12.9 0.00 0.00 0.00 78 1006.8
20260507125923 21 135 25.7 29.0 0.00 0.00 0.00 78 1006.8
20260507125711 21 68 19.3 22.5 0.00 0.00 0.00 76 1006.8
20260507125511 21 68 14.5 14.5 0.00 0.00 0.00 75 1006.8
20260507125311 21 68 14.5 16.1 0.00 0.00 0.00 77 1006.8
20260507125059 21 68 22.5 24.1 0.00 0.00 0.00 77 1006.8
20260507124859 21 68 19.3 22.5 0.00 0.00 0.00 76 1006.8
20260507124659 21 68 20.9 24.1 0.00 0.00 0.00 76 1006.8
20260507124447 21 68 24.1 25.7 0.00 0.00 0.00 75 1006.8
20260507124247 21 68 16.1 17.7 0.00 0.00 0.00 77 1006.8
20260507124047 21 90 24.1 27.4 0.00 0.00 0.00 76 1006.8
20260507123835 21 68 14.5 17.7 0.00 0.00 0.00 77 1006.8
20260507123635 21 112 16.1 17.7 0.00 0.00 0.00 77 1006.8
20260507123435 21 135 17.7 22.5 0.00 0.00 0.00 76 1006.8
20260507123223 21 90 20.9 24.1 0.00 0.00 0.00 76 1006.8
20260507123023 21 112 22.5 29.0 0.00 0.00 0.00 75 1006.8
20260507122823 21 90 19.3 22.5 0.00 0.00 0.00 76 1006.8
20260507122612 21 68 19.3 22.5 0.00 0.00 0.00 77 1006.8
20260507122411 21 112 12.9 14.5 0.00 0.00 0.00 77 1006.8
20260507122211 21 90 11.3 12.9 0.00 0.00 0.00 78 1006.8
20260507121959 21 68 14.5 16.1 0.00 0.00 0.00 77 1006.8
20260507121759 21 90 19.3 24.1 0.00 0.00 0.00 77 1006.8
20260507121559 21 90 17.7 20.9 0.00 0.00 0.00 76 1006.8
20260507121347 21 68 17.7 20.9 0.00 0.00 0.00 77 1006.8
20260507121147 21 68 20.9 24.1 0.00 0.00 0.00 77 1006.8
20260507120947 21 112 19.3 22.5 0.00 0.00 0.00 76 1006.8
20260507120736 21 68 22.5 24.1 0.00 0.00 0.00 76 1006.8
20260507120535 21 45 20.9 24.1 0.00 0.00 0.00 77 1006.8
20260507120335 21 68 24.1 27.4 0.00 0.00 0.00 75 1006.8
20260507120123 21 90 20.9 25.7 0.00 0.00 0.00 74 1006.8
20260507115923 21 90 19.3 20.9 0.00 0.00 0.00 74 1006.8
20260507115723 21 90 14.5 17.7 0.00 0.00 0.00 75 1006.8
20260507115511 21 90 20.9 24.1 0.00 0.00 0.00 75 1006.8
20260507115311 21 68 22.5 24.1 0.00 0.00 0.00 74 1006.8
20260507115111 21 68 14.5 16.1 0.00 0.00 0.00 75 1006.8
20260507114900 21 112 16.1 17.7 0.00 0.00 0.00 75 1006.8
20260507114659 21 90 22.5 27.4 0.00 0.00 0.00 75 1006.8
20260507114459 21 68 17.7 19.3 0.00 0.00 0.00 76 1006.8
20260507114247 21 90 24.1 27.4 0.00 0.00 0.00 76 1006.8
20260507114047 21 90 14.5 17.7 0.00 0.00 0.00 76 1006.8
20260507113847 21 45 22.5 25.7 0.00 0.00 0.00 75 1006.8
20260507113635 21 68 22.5 27.4 0.00 0.00 0.00 75 1006.8
20260507113435 21 90 22.5 25.7 0.00 0.00 0.00 74 1006.8
20260507113235 21 90 19.3 24.1 0.00 0.00 0.00 75 1006.8
20260507113024 21 68 20.9 24.1 0.00 0.00 0.00 74 1006.8
20260507112823 21 112 14.5 16.1 0.00 0.00 0.00 75 1007.8
20260507112623 21 68 27.4 33.8 0.00 0.00 0.00 74 1007.8
20260507112411 21 90 17.7 17.7 0.00 0.00 0.00 75 1007.8
20260507112211 21 68 25.7 27.4 0.00 0.00 0.00 73 1007.8
20260507112011 21 90 20.9 27.4 0.00 0.00 0.00 75 1007.8
20260507111759 20 90 22.5 25.7 0.00 0.00 0.00 75 1007.8
20260507111559 20 90 17.7 19.3 0.00 0.00 0.00 75 1007.8
20260507111359 21 68 14.5 19.3 0.00 0.00 0.00 76 1007.8
20260507111147 20 90 16.1 19.3 0.00 0.00 0.00 74 1007.8
20260507110947 20 90 14.5 16.1 0.00 0.00 0.00 75 1007.8
20260507110747 21 68 20.9 25.7 0.00 0.00 0.00 74 1007.8
20260507110538 21 68 14.5 14.5 0.00 0.00 0.00 75 1007.8
20260507110335 21 90 17.7 20.9 0.00 0.00 0.00 73 1007.8
20260507110135 20 90 16.1 17.7 0.00 0.00 0.00 73 1007.8
20260507105923 21 90 19.3 20.9 0.00 0.00 0.00 74 1007.8
20260507105723 21 90 22.5 24.1 0.00 0.00 0.00 73 1007.8
20260507105523 21 90 16.1 16.1 0.00 0.00 0.00 73 1007.8
20260507105311 21 68 20.9 25.7 0.00 0.00 0.00 74 1007.8
20260507105111 21 112 20.9 22.5 0.00 0.00 0.00 73 1007.8
20260507104911 21 90 19.3 20.9 0.00 0.00 0.00 73 1007.8
20260507104659 21 68 20.9 24.1 0.00 0.00 0.00 71 1007.8
20260507104459 21 68 25.7 30.6 0.00 0.00 0.00 69 1007.8
20260507104259 21 68 20.9 24.1 0.00 0.00 0.00 71 1007.8
20260507104047 21 68 22.5 25.7 0.00 0.00 0.00 73 1007.8
20260507103846 21 90 25.7 27.4 0.00 0.00 0.00 72 1007.8
20260507103647 21 68 17.7 17.7 0.00 0.00 0.00 72 1007.8
20260507103435 21 90 16.1 20.9 0.00 0.00 0.00 72 1007.8
20260507103235 21 90 22.5 27.4 0.00 0.00 0.00 73 1008.8
20260507103035 21 112 19.3 22.5 0.00 0.00 0.00 70 1008.8
20260507102823 21 68 22.5 24.1 0.00 0.00 0.00 71 1008.8
20260507102623 21 90 22.5 25.7 0.00 0.00 0.00 71 1008.8
20260507102423 21 68 20.9 24.1 0.00 0.00 0.00 68 1008.8
20260507102211 21 112 11.3 12.9 0.00 0.00 0.00 71 1008.8
20260507102011 21 68 14.5 14.5 0.00 0.00 0.00 70 1008.8
20260507101810 21 68 12.9 14.5 0.00 0.00 0.00 70 1008.8
20260507101559 21 90 14.5 16.1 0.00 0.00 0.00 71 1008.8
20260507101359 21 68 14.5 16.1 0.00 0.00 0.00 70 1008.8
20260507101158 21 112 20.9 25.7 0.00 0.00 0.00 71 1008.8
20260507100947 21 68 16.1 16.1 0.00 0.00 0.00 70 1008.8
20260507100747 21 112 16.1 16.1 0.00 0.00 0.00 70 1008.8
20260507100547 21 135 17.7 19.3 0.00 0.00 0.00 71 1008.8
20260507100335 21 90 14.5 16.1 0.00 0.00 0.00 71 1008.8
20260507100134 21 45 27.4 29.0 0.00 0.00 0.00 71 1008.8
20260507095935 21 68 24.1 27.4 0.00 0.00 0.00 71 1008.8
20260507095723 21 45 14.5 17.7 0.00 0.00 0.00 71 1008.8
20260507095522 21 90 20.9 24.1 0.00 0.00 0.00 69 1008.8
20260507095323 21 68 20.9 24.1 0.00 0.00 0.00 71 1008.8
20260507095111 21 90 22.5 27.4 0.00 0.00 0.00 70 1008.8
20260507094910 21 68 29.0 30.6 0.00 0.00 0.00 69 1008.8
20260507094711 21 68 11.3 12.9 0.00 0.00 0.00 72 1008.8
20260507094459 21 68 16.1 17.7 0.00 0.00 0.00 70 1008.8
20260507094258 21 112 14.5 16.1 0.00 0.00 0.00 72 1008.8
20260507094058 21 90 19.3 24.1 0.00 0.00 0.00 71 1008.8
20260507093847 21 90 12.9 12.9 0.00 0.00 0.00 71 1008.8
20260507093647 21 68 17.7 19.3 0.00 0.00 0.00 72 1008.8
20260507093446 21 68 17.7 20.9 0.00 0.00 0.00 72 1008.8
20260507093235 21 112 14.5 16.1 0.00 0.00 0.00 73 1008.8
20260507093035 21 112 16.1 17.7 0.00 0.00 0.00 73 1008.8
20260507092834 21 45 17.7 19.3 0.00 0.00 0.00 73 1008.8
20260507092623 21 68 16.1 17.7 0.00 0.00 0.00 73 1008.8
20260507092422 21 68 17.7 17.7 0.00 0.00 0.00 73 1008.8
20260507092223 21 90 19.3 22.5 0.00 0.00 0.00 73 1008.8
20260507092011 21 90 14.5 16.1 0.00 0.00 0.00 71 1008.8
20260507091810 21 68 14.5 16.1 0.00 0.00 0.00 73 1008.8
20260507091611 21 68 14.5 16.1 0.00 0.00 0.00 74 1008.8
20260507091359 21 68 16.1 16.1 0.00 0.00 0.00 73 1008.8
20260507091158 21 45 14.5 16.1 0.00 0.00 0.00 74 1008.8
20260507090959 21 90 14.5 16.1 0.00 0.00 0.00 73 1008.8
20260507090747 21 90 16.1 16.1 0.00 0.00 0.00 71 1008.8
20260507090546 21 112 16.1 17.7 0.00 0.00 0.00 73 1008.8
20260507090346 21 68 20.9 25.7 0.00 0.00 0.00 73 1008.8
20260507090135 21 68 16.1 16.1 0.00 0.00 0.00 73 1008.8
20260507085935 21 90 14.5 16.1 0.00 0.00 0.00 74 1008.8
20260507085734 21 90 22.5 24.1 0.00 0.00 0.00 73 1008.8
20260507085523 21 68 16.1 16.1 0.00 0.00 0.00 73 1008.8
20260507085323 21 112 16.1 20.9 0.00 0.00 0.00 74 1008.8
20260507085123 21 112 16.1 19.3 0.00 0.00 0.00 73 1008.8
20260507084911 20 112 14.5 17.7 0.00 0.00 0.00 74 1008.8
20260507084710 20 68 22.5 24.1 0.00 0.00 0.00 72 1008.8
20260507084510 20 68 20.9 24.1 0.00 0.00 0.00 75 1008.8
20260507084259 20 112 24.1 25.7 0.00 0.00 0.00 73 1008.8
20260507084058 20 90 22.5 24.1 0.00 0.00 0.00 73 1008.8
20260507083858 20 90 14.5 16.1 0.00 0.00 0.00 73 1008.8
20260507083647 20 112 14.5 16.1 0.00 0.00 0.00 73 1008.8
20260507083446 20 112 16.1 16.1 0.00 0.00 0.00 74 1008.8
20260507083246 20 68 16.1 20.9 0.00 0.00 0.00 73 1008.8
20260507083035 20 68 19.3 20.9 0.00 0.00 0.00 75 1008.8
20260507082834 20 45 14.5 14.5 0.00 0.00 0.00 75 1008.8
20260507082634 20 68 19.3 22.5 0.00 0.00 0.00 74 1008.8
20260507082423 20 68 19.3 20.9 0.00 0.00 0.00 73 1008.8
20260507082223 20 90 22.5 24.1 0.00 0.00 0.00 74 1008.8
20260507082022 20 90 17.7 17.7 0.00 0.00 0.00 74 1008.8
20260507081811 20 68 22.5 24.1 0.00 0.00 0.00 73 1008.8
20260507081610 20 68 17.7 19.3 0.00 0.00 0.00 75 1008.8
20260507081410 20 68 17.7 19.3 0.00 0.00 0.00 74 1008.8
20260507081159 20 90 14.5 16.1 0.00 0.00 0.00 74 1008.8
20260507080958 21 90 14.5 16.1 0.00 0.00 0.00 72 1008.8
20260507080758 21 112 14.5 16.1 0.00 0.00 0.00 70 1008.8
20260507080547 20 90 8.0 8.0 0.00 0.00 0.00 73 1008.8
20260507080346 20 112 14.5 16.1 0.00 0.00 0.00 71 1008.8
20260507080146 20 90 11.3 12.9 0.00 0.00 0.00 71 1008.8
20260507075935 20 90 9.7 9.7 0.00 0.00 0.00 71 1008.8
20260507075734 20 90 16.1 17.7 0.00 0.00 0.00 74 1008.8
20260507075534 20 68 11.3 11.3 0.00 0.00 0.00 74 1008.8
20260507075323 20 68 17.7 20.9 0.00 0.00 0.00 74 1008.8
20260507075122 20 68 14.5 19.3 0.00 0.00 0.00 75 1008.8
20260507074923 20 112 11.3 11.3 0.00 0.00 0.00 75 1008.8
20260507074711 20 112 14.5 17.7 0.00 0.00 0.00 74 1008.8
20260507074510 20 90 14.5 14.5 0.00 0.00 0.00 76 1009.8
20260507074310 20 68 12.9 12.9 0.00 0.00 0.00 77 1009.8
20260507074059 20 68 14.5 17.7 0.00 0.00 0.00 76 1009.8
20260507073858 20 68 12.9 14.5 0.00 0.00 0.00 76 1009.8
20260507073658 20 22 12.9 14.5 0.00 0.00 0.00 75 1009.8
20260507073447 20 112 14.5 16.1 0.00 0.00 0.00 77 1009.8
20260507073246 20 68 17.7 19.3 0.00 0.00 0.00 77 1009.8
20260507073046 20 68 17.7 19.3 0.00 0.00 0.00 75 1009.8
20260507072835 20 90 16.1 16.1 0.00 0.00 0.00 76 1009.8
20260507072634 20 68 11.3 12.9 0.00 0.00 0.00 78 1009.8
20260507072434 20 68 16.1 16.1 0.00 0.00 0.00 78 1009.8
20260507072223 20 68 17.7 19.3 0.00 0.00 0.00 78 1009.8
20260507072022 20 68 14.5 14.5 0.00 0.00 0.00 77 1009.8
20260507071822 20 90 14.5 16.1 0.00 0.00 0.00 76 1009.8
20260507071611 20 68 16.1 16.1 0.00 0.00 0.00 78 1009.8
20260507071410 20 68 16.1 17.7 0.00 0.00 0.00 78 1008.8
20260507071210 20 90 12.9 14.5 0.00 0.00 0.00 78 1008.8
20260507070959 20 68 12.9 14.5 0.00 0.00 0.00 78 1008.8
20260507070759 20 68 14.5 16.1 0.00 0.00 0.00 78 1008.8
20260507070558 20 90 11.3 12.9 0.00 0.00 0.00 78 1008.8
20260507070347 20 68 17.7 19.3 0.00 0.00 0.00 79 1008.8
20260507070146 20 68 14.5 14.5 0.00 0.00 0.00 79 1009.8
20260507065946 20 90 12.9 14.5 0.00 0.00 0.00 80 1009.8
20260507065735 20 68 14.5 16.1 0.00 0.00 0.00 79 1009.8
20260507065534 20 68 20.9 24.1 0.00 0.00 0.00 78 1009.8
20260507065334 20 45 14.5 14.5 0.00 0.00 0.00 79 1009.8
20260507065123 20 90 8.0 8.0 0.00 0.00 0.00 80 1009.8
20260507064922 20 68 11.3 12.9 0.00 0.00 0.00 80 1008.8
20260507064722 19 68 16.1 16.1 0.00 0.00 0.00 80 1008.8
20260507064511 19 68 12.9 12.9 0.00 0.00 0.00 80 1008.8
20260507064310 19 68 9.7 9.7 0.00 0.00 0.00 80 1008.8
20260507064110 19 112 11.3 11.3 0.00 0.00 0.00 80 1008.8
20260507063859 19 68 14.5 16.1 0.00 0.00 0.00 81 1008.8
20260507063658 19 22 11.3 12.9 0.00 0.00 0.00 80 1008.8
20260507063458 19 68 12.9 14.5 0.00 0.00 0.00 80 1008.8
20260507063247 19 90 11.3 12.9 0.00 0.00 0.00 81 1008.8
20260507063046 19 45 14.5 14.5 0.00 0.00 0.00 81 1009.8
20260507062846 19 90 14.5 16.1 0.00 0.00 0.00 81 1009.8
20260507062635 19 68 12.9 12.9 0.00 0.00 0.00 82 1009.8
20260507062434 19 68 16.1 16.1 0.00 0.00 0.00 81 1009.8
20260507062234 19 90 12.9 14.5 0.00 0.00 0.00 81 1009.8
20260507062023 19 68 16.1 17.7 0.00 0.00 0.00 81 1009.8
20260507061822 19 68 14.5 16.1 0.00 0.00 0.00 82 1008.8
20260507061622 19 90 12.9 14.5 0.00 0.00 0.00 82 1008.8
20260507061411 19 68 14.5 16.1 0.00 0.00 0.00 83 1008.8
20260507061210 19 45 9.7 9.7 0.00 0.00 0.00 84 1008.8
20260507061010 19 45 14.5 17.7 0.00 0.00 0.00 84 1008.8
20260507060759 19 68 16.1 16.1 0.00 0.00 0.00 84 1008.8
20260507060558 19 68 14.5 17.7 0.00 0.00 0.00 84 1008.8
20260507060358 18 68 12.9 12.9 0.00 0.00 0.00 84 1008.8
20260507060147 18 45 14.5 16.1 0.00 0.00 0.00 86 1008.8
20260507055946 18 68 12.9 16.1 0.00 0.00 0.00 86 1009.8
20260507055746 18 68 8.0 8.0 0.00 0.00 0.00 87 1009.8
20260507055535 18 68 9.7 11.3 0.00 0.00 0.00 87 1009.8
20260507055334 18 68 12.9 14.5 0.00 0.00 0.00 88 1009.8
20260507055134 18 68 12.9 12.9 0.00 0.00 0.00 88 1009.8
20260507054923 18 68 11.3 11.3 0.00 0.00 0.00 88 1009.8
20260507054722 18 68 11.3 12.9 0.00 0.00 0.00 88 1009.8
20260507054522 18 68 8.0 8.0 0.00 0.00 0.00 89 1009.8
20260507054311 18 68 12.9 12.9 0.00 0.00 0.00 89 1009.8
20260507054110 18 90 11.3 12.9 0.00 0.00 0.00 89 1009.8
20260507053910 18 68 11.3 12.9 0.00 0.00 0.00 90 1009.8
20260507053659 18 68 9.7 11.3 0.00 0.00 0.00 89 1009.8
20260507053458 18 68 8.0 8.0 0.00 0.00 0.00 90 1009.8
20260507053258 18 68 12.9 12.9 0.00 0.00 0.00 91 1009.8
20260507053047 18 45 11.3 12.9 0.00 0.00 0.00 90 1009.8
20260507052846 18 68 9.7 9.7 0.00 0.00 0.00 91 1009.8
20260507052646 18 0 12.9 14.5 0.00 0.00 0.00 91 1009.8
20260507052435 18 68 11.3 11.3 0.00 0.00 0.00 91 1009.8
20260507052234 18 68 12.9 12.9 0.00 0.00 0.00 92 1009.8
20260507052034 18 68 9.7 9.7 0.00 0.00 0.00 92 1009.8
20260507051823 18 68 12.9 12.9 0.00 0.00 0.00 92 1009.8
20260507051622 17 68 8.0 8.0 0.00 0.00 0.00 92 1008.8
20260507051422 17 68 9.7 9.7 0.00 0.00 0.00 92 1008.8
20260507051211 17 68 11.3 11.3 0.00 0.00 0.00 92 1008.8
20260507051010 17 45 14.5 16.1 0.00 0.00 0.00 92 1008.8
20260507050810 17 68 9.7 9.7 0.00 0.00 0.00 92 1008.8
20260507050611 17 68 9.7 9.7 0.00 0.00 0.00 92 1008.8
20260507050410 17 45 9.7 9.7 0.00 0.00 0.00 92 1008.8
20260507050210 17 45 8.0 8.0 0.00 0.00 0.00 92 1008.8
20260507045959 17 68 11.3 11.3 0.00 0.00 0.00 92 1008.8
20260507045758 17 68 12.9 12.9 0.00 0.00 0.00 93 1008.8
20260507045558 17 68 12.9 12.9 0.00 0.00 0.00 93 1008.8
20260507045347 17 45 9.7 9.7 0.00 0.00 0.00 93 1008.8
20260507045146 17 68 11.3 11.3 0.00 0.00 0.00 93 1008.8
20260507044946 17 68 11.3 11.3 0.00 0.00 0.00 93 1008.8
20260507044747 17 68 8.0 8.0 0.00 0.00 0.00 93 1008.8
20260507044546 17 68 12.9 14.5 0.00 0.00 0.00 93 1009.8
20260507044346 17 68 8.0 8.0 0.00 0.00 0.00 94 1009.8
20260507044135 17 68 8.0 8.0 0.00 0.00 0.00 94 1009.8
20260507043934 17 68 9.7 9.7 0.00 0.00 0.00 94 1009.8
20260507043734 17 68 8.0 8.0 0.00 0.00 0.00 94 1009.8
20260507043523 17 22 8.0 8.0 0.00 0.00 0.00 94 1009.8
20260507043322 17 68 8.0 8.0 0.00 0.00 0.00 94 1008.8
20260507043122 17 45 9.7 9.7 0.00 0.00 0.00 94 1008.8
20260507042911 17 45 8.0 8.0 0.00 0.00 0.00 94 1008.8
20260507042710 17 68 6.4 6.4 0.00 0.00 0.00 94 1008.8
20260507042510 17 68 8.0 8.0 0.00 0.00 0.00 95 1008.8
20260507042259 17 45 9.7 11.3 0.00 0.00 0.00 95 1008.8
20260507042058 17 45 9.7 9.7 0.00 0.00 0.00 95 1008.8
20260507041858 17 22 8.0 8.0 0.00 0.00 0.00 95 1008.8
20260507041659 17 68 8.0 8.0 0.00 0.00 0.00 95 1008.8
20260507041458 17 68 8.0 8.0 0.00 0.00 0.00 95 1008.8
20260507041258 17 22 9.7 9.7 0.00 0.00 0.00 95 1008.8
20260507041059 17 68 8.0 8.0 0.00 0.00 0.00 95 1008.8
20260507040858 17 68 9.7 9.7 0.00 0.00 0.00 95 1008.8
20260507040658 17 68 11.3 12.9 0.00 0.00 0.00 95 1008.8
20260507040459 17 68 9.7 9.7 0.00 0.00 0.00 95 1008.8
20260507040258 17 45 8.0 8.0 0.00 0.00 0.00 95 1009.8
20260507040058 17 68 11.3 11.3 0.00 0.00 0.00 95 1009.8
20260507035859 17 68 12.9 14.5 0.00 0.00 0.00 95 1009.8
20260507035658 17 68 9.7 9.7 0.00 0.00 0.00 95 1009.8
20260507035458 17 45 9.7 11.3 0.00 0.00 0.00 95 1009.8
20260507035247 17 68 11.3 12.9 0.00 0.00 0.00 95 1009.8
20260507035046 17 45 8.0 8.0 0.00 0.00 0.00 95 1009.8
20260507034846 17 45 11.3 12.9 0.00 0.00 0.00 95 1009.8
20260507034635 17 68 11.3 11.3 0.00 0.00 0.00 95 1009.8
20260507034434 17 22 9.7 9.7 0.00 0.00 0.00 95 1009.8
20260507034234 17 22 8.0 8.0 0.00 0.00 0.00 95 1009.8
20260507034035 17 45 11.3 11.3 0.00 0.00 0.00 95 1009.8
20260507033834 17 45 9.7 9.7 0.00 0.00 0.00 95 1009.8
20260507033634 17 68 9.7 9.7 0.00 0.00 0.00 95 1009.8
20260507033423 17 45 11.3 12.9 0.00 0.00 0.00 95 1009.8
20260507033222 17 68 12.9 12.9 0.00 0.00 0.00 95 1009.8
20260507033022 17 68 9.7 9.7 0.00 0.00 0.00 95 1009.8
20260507032823 17 45 9.7 9.7 0.00 0.00 0.00 95 1009.8
20260507032622 17 68 8.0 9.7 0.00 0.00 0.00 95 1009.8
20260507032422 17 45 9.7 9.7 0.00 0.00 0.00 95 1009.8
20260507032223 17 45 9.7 9.7 0.00 0.00 0.00 95 1009.8
20260507032022 17 45 12.9 12.9 0.00 0.00 0.00 95 1009.8
20260507031822 17 68 8.0 8.0 0.00 0.00 0.00 95 1009.8
20260507031611 17 45 11.3 11.3 0.00 0.00 0.00 95 1009.8
20260507031410 17 45 8.0 8.0 0.00 0.00 0.00 95 1009.8
20260507031210 17 45 9.7 9.7 0.00 0.00 0.00 95 1009.8
20260507030959 17 68 8.0 9.7 0.00 0.00 0.00 95 1009.8
20260507030758 17 68 6.4 8.0 0.00 0.00 0.00 95 1009.8
20260507030558 17 68 3.2 3.2 0.00 0.00 0.00 95 1009.8
20260507030358 17 45 8.0 8.0 0.00 0.00 0.00 95 1009.8
20260507025946 17 68 8.0 8.0 0.00 0.00 0.00 95 1009.8
20260507025747 17 68 8.0 8.0 0.00 0.00 0.00 95 1009.8
20260507025546 17 45 8.0 8.0 0.00 0.00 0.00 95 1009.8
20260507025346 17 22 8.0 8.0 0.00 0.00 0.00 95 1009.8
20260507025135 17 45 6.4 8.0 0.00 0.00 0.00 95 1009.8
20260507024934 17 68 8.0 8.0 0.00 0.00 0.00 95 1009.8
20260507024734 17 68 8.0 8.0 0.00 0.00 0.00 95 1009.8
20260507024535 17 68 9.7 9.7 0.00 0.00 0.00 95 1009.8
20260507024334 17 338 9.7 9.7 0.00 0.00 0.00 95 1009.8
20260507024134 17 45 4.8 4.8 0.00 0.00 0.00 95 1009.8
20260507023935 17 22 8.0 8.0 0.00 0.00 0.00 95 1009.8
20260507023734 17 22 4.8 6.4 0.00 0.00 0.00 95 1009.8
20260507023534 17 68 9.7 9.7 0.00 0.00 0.00 95 1009.8
20260507023335 17 45 8.0 8.0 0.00 0.00 0.00 95 1009.8
20260507023134 17 68 8.0 8.0 0.00 0.00 0.00 95 1009.8
20260507022934 17 68 9.7 9.7 0.00 0.00 0.00 95 1009.8
20260507022723 17 45 9.7 9.7 0.00 0.00 0.00 95 1009.8
20260507022522 17 45 9.7 11.3 0.00 0.00 0.00 95 1009.8
20260507022322 17 45 8.0 8.0 0.00 0.00 0.00 95 1009.8
20260507022123 17 45 6.4 8.0 0.00 0.00 0.00 95 1009.8
20260507021922 17 22 6.4 6.4 0.00 0.00 0.00 95 1009.8
20260507021722 17 68 4.8 4.8 0.00 0.00 0.00 95 1009.8
20260507021523 17 45 8.0 8.0 0.00 0.00 0.00 95 1009.8
20260507021322 17 22 4.8 4.8 0.00 0.00 0.00 95 1009.8
20260507021122 17 68 3.2 3.2 0.00 0.00 0.00 95 1009.8
20260507020923 17 68 8.0 8.0 0.00 0.00 0.00 95 1009.8
20260507020722 17 68 4.8 4.8 0.00 0.00 0.00 95 1009.8
20260507020522 17 68 8.0 8.0 0.00 0.00 0.00 95 1009.8
20260507020323 17 90 8.0 8.0 0.00 0.00 0.00 95 1009.8
20260507020122 17 68 6.4 8.0 0.00 0.00 0.00 95 1008.8
20260507015922 17 45 8.0 8.0 0.00 0.00 0.00 95 1008.8
20260507015723 17 22 8.0 8.0 0.00 0.00 0.00 95 1008.8
20260507015522 17 45 9.7 11.3 0.00 0.00 0.00 95 1008.8
20260507015322 17 68 12.9 12.9 0.00 0.00 0.00 95 1008.8